Location: Unspecified
(0.0000°N, 0.0000°E)
Time: 18:40:28
(UTC+00:00)

GONETS D1M 1 - Visible Passes

Search period start: 17 May 2026 00:00
Search period end: 27 May 2026 00:00
Orbit: 1436 x 1447 km, 82.5° (Epoch: 17 May)

Date Brightness Start Highest point End Pass type
(mag) Time Alt. Az. Time Alt. Az. Time Alt. Az.
17 May 9.4 04:25:15 10° ESE 04:27:47 11° E 04:30:19 10° ENE visible
17 May 7.9 18:41:07 10° NNW 18:48:58 42° W 18:56:51 10° SSW visible
18 May 8.0 05:11:51 10° SSE 05:19:43 41° E 05:27:32 10° NNE visible
18 May 9.3 19:38:04 10° WNW 19:40:53 12° W 19:43:44 10° WSW visible
19 May 9.3 04:13:26 10° ESE 04:16:22 12° E 04:19:17 10° ENE visible
19 May 8.0 18:29:45 10° NNW 18:37:33 41° W 18:45:23 10° SSW visible
20 May 7.9 05:00:22 10° SSE 05:08:18 43° E 05:16:10 10° NNE visible
20 May 9.3 19:27:03 10° WNW 19:29:28 11° W 19:31:54 10° WSW visible
21 May 9.2 04:01:40 10° ESE 04:04:57 13° E 04:08:12 10° ENE visible
21 May 8.1 18:18:23 10° NNW 18:26:07 40° W 18:33:53 10° SSW visible
22 May 7.8 04:48:54 10° SSE 04:56:52 44° E 05:04:48 10° NNE visible
22 May 9.4 19:16:07 10° W 19:18:03 11° W 19:20:00 10° WSW visible
23 May 9.1 03:49:57 10° ESE 03:53:32 13° E 03:57:05 10° ENE visible
23 May 8.2 18:07:01 10° NNW 18:14:42 39° W 18:22:25 10° SSW visible
24 May 7.7 04:37:26 10° SSE 04:45:27 45° E 04:53:25 10° NNE visible
24 May 9.5 19:05:22 10° W 19:06:37 10° W 19:07:53 10° WSW visible
25 May 9.1 03:38:16 10° ESE 03:42:06 14° E 03:45:55 10° ENE visible
25 May 6.7 05:28:55 10° SSW 05:37:21 65° W 05:45:47 10° N visible
26 May 7.6 04:25:58 10° SSE 04:34:02 46° E 04:42:03 10° NNE visible
